sat.trackr.live / text

‹ back to catalog

STARLINK-30116

NORAD 57465 · 2023-107J

PAYLOAD ACTIVE UNKNOWN

§ Identity

Operator
Country
US
Launch date
2023-07-28
Launch site
AFETR
Launch vehicle
Mass (kg)
RCS (m²)

Purposes: comms

External: N2YO · Heavens-Above · Gunter

§ Orbital elements

Epoch: 2026-09-20T20:31:29.386272Z

Period
94.27 min
Inclination
43.0048°
Eccentricity
0.0001565
Mean motion
15.27580141 rev/d
Perigee alt
482.0 km
Apogee alt
484.1 km
Semi-major
6,861.2 km
B*
1.9432e-5
RAAN
314.0425°
Arg perigee
267.3929°
Mean anomaly
92.6743°
Rev number
17,499

§ Raw data

STARLINK-301161 57465U 23107J   26263.85520123  .00000272  00000+0  19432-4 0  99982 57465  43.0048 314.0425 0001565 267.3929  92.6743 15.27580141174997

JSON: /api/v1/satellites/57465 · /tle

For live sub-satellite position, see the globe view (requires WebGL).

§ Visibility from observer

Set your observer location to see the next 7 days of passes ≥ 10°. The values pass through the URL so the page stays shareable.

No JS? Fill the form by hand. The geolocation button needs JavaScript.